World > North America > United States > Pennsylvania > Chadds Ford

Hourly Chadds Ford, PA Regional Weather

Feedback E-mail the Weather

Quick WX

Chadds Ford, PA Weather Maps

°F °C°F °C
Chadds Ford Weather Map
UTC Time: 8/9/2022, 14:42
Your Time:

Chadds Ford, PA Regional Weather

Expires:202208091500;;735645
ASUS41 KPHI 091415
RWRPHI

REGIONAL WEATHER ROUNDUP
NATIONAL WEATHER SERVICE MOUNT HOLLY NJ
1000 AM EDT TUE AUG 09 2022

NOTE:  "FAIR" INDICATES FEW OR NO CLOUDS BELOW 12,000 FEET WITH NO
SIGNIFICANT WEATHER AND/OR OBSTRUCTIONS TO VISIBILITY.

 * = STATION DOES NOT REPORT PRECIPITATION (E.G. RAIN, SNOW, ETC.) 
        OR FOG.


PAZ043-044-047-054-055-060>062-066>071-091500-
EASTERN PENNSYLVANIA
  
CITY           SKY/WX    TMP DP  RH WIND       PRES   REMARKS
PHILADELPHIA   MOSUNNY   89  74  60 SW15      29.97R HX  98           
NORTH PHILA    SUNNY     91  72  53 W10       29.97R HX  98           
BLUE BELL*     SUNNY     87  74  65 W7        29.97S HX  94           
DOYLESTOWN     SUNNY     87  71  58 VRB6      29.96S HX  93           
QUAKERTOWN*    SUNNY     86  73  66 SW9       29.97S HX  93           
PERKASIE*      FAIR      86  73  66 W8        29.98F HX  93           
POTTSTOWN      SUNNY     84  71  65 SW9       29.98S                  
LANCASTER      SUNNY     89  71  55 W14G21    29.97S HX  95           
COATESVILLE    SUNNY     84  75  74 W8        30.01S HX  92           
WEST CHESTER   FAIR      86  72  62 W8        29.99S HX  92           
READING        SUNNY     88  73  61 W13       29.95S HX  95           
ALLENTOWN      SUNNY     87  72  60 W8G17     29.95S HX  93           
QN CITY/ALNTWN FAIR      86  72  62 W13       29.97S HX  92           
MOUNT POCONO   MOSUNNY   80  71  74 W14G23    30.01S                  
HAZLETON       MOSUNNY   82  72  69 W7        30.04S                  
LEHIGHTON      FAIR      82  73  74 SW5       29.96F                  
WILKES BARRE   MOSUNNY   84  73  69 W13       29.96S HX  90           

$$

SKY/WX - Weather  TMP - Temperature  DP - Dew Point  RH - Humidity
WIND - Wind Direction/Speed PRES - Barometric Pressure VSB - Visibility
WCI - Wind Chill Index E13G22 Wind - East Wind 13 mph/Gusts of 22 mph

Trending Headlines

Chadds Ford Radar Loop



Chadds Ford Quick Facts


National Two Day Weather Forecast


E-mail the Chadds Ford Weather Forecast

Voice your opinion or tell us about page issues...